Showing default

FLOCK 4BE 29, 60509

Orbit data source: Space-Track

FLOCK 4BE 29, 60509 is a payload satellite owned by Planet (US) in SSO that was launched on Fri, 16 Aug 2024 UTC via an FALCON 9 launch vehicle from the Air Force Western Test Range (AFWTR). Payload-class satellites include a variety of spacecraft equipped with specific instruments for various scientific and technological missions. These include communications satellites like Starlink; space stations such as the ISS; scientific satellites like the Hubble; Earth observation satellites from companies like Planet Labs, Umbra, and HawkEye 360; GPS; miniature CubeSats for education and research; and military/defense satellites.

Loading next visibility...
Identifier
60509, 2024-149AT
Orbit
SSO
Country
Flag of USUS
Related business
Manufacturer
Planet
Mission
Operational Commercial Imaging
Bus & Motor
CUBESAT 3U, Unknown motor
Mass
5.7 kg wet, 5.7 kg dry
Launch date (UTC)
2024-08-16 (1 year ago)
Launch vehicle
FALCON 9
Launch site
Air Force Western Test Range (AFWTR)
Object type
Payload
Rocket body
Debris
Shape & HBR
Box + 2 Pan, 1.0 m
Radar Cross Section
0.072 m², Medium (>0.1 m² and < 1m²)

Expand to show TLE details & history
Last TLE update: 6 hours ago

TLE from 6 hours ago
0 FLOCK 4BE 29
1 60509U 24149AT  26035.18972306  .00025292  00000-0  66008-3 0  9995
2 60509  97.3903 119.5172 0003840  60.3080 299.8548 15.38793595 81921
Epoch: 2026-02-04T04:33Z
TLE epoch observation values (Epoch: 2026-02-04T04:33:12.072Z)
Latitude
0.00006°
Longitude
-83.14298°
Altitude
451.487 km
Speed
7.642 km/s
True Right ascension
07h 58m 04s
True Declination
0° 00' 00"
Sunlit
Object was in full shadow at epoch
Visualization orbit readout
Latitude
Unknown
Longitude
Unknown
Altitude
Unknown
Speed
Unknown
Apparent Right ascension
Unknown
Apparent Declination
Unknown
Sunlit
N/A
Visualization observer readout
Local Sidereal Time
12:25:11
Azimuth
Unknown
Elevation
Unknown
Doppler factor
Unknown
Orbital elements
Apogee altitude
449.236 km
Perigee altitude
443.995 km
Semi-major axis
6,824.753 km
Eccentricity
0.00038
Inclination
97.3903°
RAAN
119.5172°
Arg. of periapsis
60.308°
True anomaly
299.81663°
Mean anomaly
299.8548°
Eccentric anomaly
299.83571°
Mean motion
3.84957 °/min
Orbital period
93.52 mins
BSTAR
0.00066008
Loading maneuver chart data...
Computing Atmospheric mass density...
Loading historical data...
Loading historical data...
Loading historical data...
Loading historical data...
Loading historical data...
Loading historical data...
Loading historical data...

Documentation

Showing up to 5 results
|